Regional Weather Roundup
Issued by NWS Little Rock, AR

Home | Current Version | Previous Version | Graphics & Text | Print | Product List | Glossary On
Versions: 1 2 3 4 5 6 7 8 9 10 11 12 13 14 15 16 17 18 19 20 21 22 23 24 25 26 27 28 29 30 31 32 33 34 35 36 37 38 39 40 41 42 43 44 45 46 47 48 49 50
000
ASUS44 KLZK 242205
RWRLZK

WEATHER ROUNDUP FOR ARKANSAS
NATIONAL WEATHER SERVICE LITTLE ROCK AR
500 PM CDT FRI APR 24 2015

NOTE: "FAIR" INDICATES FEW OR NO CLOUDS BELOW 12,000 FEET WITH NO
SIGNIFICANT WEATHER AND/OR OBSTRUCTIONS TO VISIBILITY.

ARZ001-003-010-029-242300-
NORTHWEST ARKANSAS

CITY           SKY/WX    TMP DP  RH WIND       PRES   REMARKS
FAYETTEVILLE   LGT RAIN  62  57  83 S12       29.76F
FORT SMITH     CLOUDY    63  60  90 NE9       29.75F
HARRISON       CLOUDY    60  56  86 SE9       29.78F
BENTONVILLE    CLOUDY    64  54  68 S13       29.73F
ROGERS         LGT RAIN  64  56  75 S13G20    29.74F
SILOAM SPGS    CLOUDY    63  54  72 S9        29.74F
HIGHFILL       CLOUDY    64  55  72 S17G28    29.71F
SPRINGDALE     CLOUDY    64  55  72 S12       29.76F
$$

ARZ004-005-016-242300-
NORTH CENTRAL ARKANSAS

CITY           SKY/WX    TMP DP  RH WIND       PRES   REMARKS
BATESVILLE     CLOUDY    55  52  88 E5        29.89S
FLIPPIN        CLOUDY    59  54  82 SE5       29.81F
MTN HOME       CLOUDY    55  51  86 SE9       29.82F
$$

ARZ040-041-242300-
WEST CENTRAL ARKANSAS

CITY           SKY/WX    TMP DP  RH WIND       PRES   REMARKS
MENA           CLOUDY    61  61 100 E5        29.83F
MOUNT IDA      HVY RAIN  62  62 100 CALM      29.82S FOG
$$

ARZ009-017-025-026-028-242300-
NORTHEAST ARKANSAS

CITY           SKY/WX    TMP DP  RH WIND       PRES   REMARKS
CORNING          N/A     55  52  88 E6        29.91S
JONESBORO      LGT RAIN  57  51  80 SE12      29.88F
NEWPORT        LGT RAIN  56  54  93 SE14      29.89F
WALNUT RIDGE   CLOUDY    55  48  76 E6        29.89F
BLYTHEVILLE    CLOUDY    60  48  64 S16       29.91F
$$

ARZ022-023-033-042-044-242300-
CENTRAL ARKANSAS

CITY           SKY/WX    TMP DP  RH WIND       PRES   REMARKS
LITTLE ROCK    LGT RAIN  61  55  82 S5        29.89S FOG
N LITTLE ROCK  CLOUDY    58  58 100 E6        29.89R
JACKSONVILLE   DRIZZLE   58  58  99 E5        29.86F
SEARCY         LGT RAIN  57  55  93 S6        29.90F FOG
HOT SPRINGS    RAIN      60  59  96 E6        29.84F FOG
RUSSELLVILLE   RAIN      58  58 100 SE6       29.84F FOG
CLINTON        LGT RAIN  57  57 100 CALM      29.88F
$$

ARZ036-242300-
EAST ARKANSAS

CITY           SKY/WX    TMP DP  RH WIND       PRES   REMARKS
WEST MEMPHIS   LGT RAIN  57  55  93 SE13      29.90F
$$

ARZ050-053-066-070-073-242300-
SOUTHWEST ARKANSAS

CITY           SKY/WX    TMP DP  RH WIND       PRES   REMARKS
ARKADELPHIA    CLOUDY    62  62 100 VRB5      29.83F
CAMDEN         RAIN      63  59  88 N5        29.84F
TEXARKANA      CLOUDY    63  63 100 E7        29.78F FOG
EL DORADO      CLOUDY    62  61  96 E6        29.84S FOG
DE QUEEN       HVY RAIN  61  60  97 N8        29.80S FOG
$$

ARZ056-057-069-242300-
SOUTHEAST ARKANSAS

CITY           SKY/WX    TMP DP  RH WIND       PRES   REMARKS
PINE BLUFF     HVY RAIN  59  59 100 CALM      29.89R VSB 3/4
STUTTGART      CLOUDY    57  54  88 NE10      29.86F
MONTICELLO     CLOUDY    61  60  97 SE5       29.86S

$$




USA.gov is the U.S. government's official web portal to all federal, state and local government web resources and services.